Erie, PA

6:52 PM EST on February 19, 2017 (GMT -0500)
Erie International

Weather History for KERI - December, 2014

Change the Weather History Date:

Wednesday, December 31, 2014

  Actual Average Record
Temperature  
Mean Temperature 21 °F 29 °F  
Max Temperature 24 °F 35 °F 68 °F (1875)
Min Temperature 18 °F 23 °F -4 °F (1880)
Degree Days  
Heating Degree Days 44 36  
Month to date heating degree days 893 1012  
Since 1 July heating degree days 2107 2168  
Cooling Degree Days 0 0  
Month to date cooling degree days 0 0  
Year to date cooling degree days 603 638  
Moisture  
Dew Point 10 °F    
Average Humidity 56    
Maximum Humidity 73    
Minimum Humidity 39    
Precipitation  
Precipitation 0.13 in 0.11 in 1.05 in (1927)
Month to date precipitation 2.45 3.74  
Year to date precipitation 40.68 42.16  
Snow  
Snow 2.00 in 1.10 in - ()
Month to date snowfall 5.8 27.5  
Since 1 July snowfall 30.8 36.2  
Snow Depth 1.00 in    
Sea Level Pressure  
Sea Level Pressure 30.34 in    
Wind  
Wind Speed 14 mph (WSW)    
Max Wind Speed 24 mph    
Max Gust Speed 33 mph    
Visibility 5 miles    
Events Fog , Snow    
T = Trace of Precipitation, MM = Missing Value Source: NWS Daily Summary

Daily Weather History Graph

Daily Weather History Graph

Search for Another Location

Airport or City:

Trip Planner

Search our weather history database for the weather conditions in past years. The results will help you decide how hot, cold, wet, or windy it might be!

Date:

Astronomy

Dec. 31, 2014 Rise Set
Actual Time 7:48 AM EST 4:58 PM EST
Civil Twilight 7:17 AM EST 5:30 PM EST
Nautical Twilight 6:42 AM EST 6:05 PM EST
Astronomical Twilight 6:08 AM EST 6:39 PM EST
Moon 1:51 PM EST (12/31) 3:10 AM EST (12/31)
Length of Visible Light 10h 13m
Length of Day
9h 09m
Waxing Gibbous, 80% of the Moon is Illuminated
Dec 31
Waxing Gibbous
Jan 4
Full
Jan 13
Last Quarter
Jan 20
New
Jan 26
First Quarter

Hourly Weather History & Observations

Time (EST) Temp. Windchill Dew Point Humidity Pressure Visibility Wind Dir Wind Speed Gust Speed Precip Events Conditions
12:03 AM 23.0 °F 10.6 °F 15.1 °F 72% 30.40 in 1.8 mi West 13.8 mph 21.9 mph 0.00 in Snow Light Snow
12:18 AM 23.0 °F 10.1 °F 15.1 °F 72% 30.39 in 2.5 mi West 15.0 mph 24.2 mph 0.00 in Snow Light Snow
12:25 AM 24.1 °F 12.0 °F 14.0 °F 65% 30.38 in 4.0 mi West 13.8 mph 24.2 mph 0.00 in Snow Light Snow
12:34 AM 23.0 °F 11.1 °F 15.1 °F 72% 30.38 in 2.0 mi WNW 12.7 mph 20.7 mph 0.00 in Snow Light Snow
12:51 AM 24.1 °F 11.5 °F 12.9 °F 62% 30.41 in 9.0 mi West 15.0 mph 21.9 mph 0.00 in   Overcast
1:03 AM 24.1 °F 12.0 °F 12.9 °F 62% 30.37 in 8.0 mi West 13.8 mph 20.7 mph 0.00 in Snow Light Snow
1:37 AM 21.9 °F 8.7 °F 15.1 °F 75% 30.37 in 1.5 mi West 15.0 mph 21.9 mph 0.00 in Snow Light Snow
1:51 AM 21.9 °F 10.4 °F 16.0 °F 78% 30.41 in 1.5 mi West 11.5 mph 19.6 mph 0.01 in Snow Light Snow
2:27 AM 21.9 °F 8.7 °F 14.0 °F 72% 30.39 in 2.5 mi WNW 15.0 mph 25.3 mph 0.00 in Snow Light Snow
2:44 AM 21.9 °F 8.7 °F 12.9 °F 68% 30.39 in 4.0 mi WNW 15.0 mph 23.0 mph 0.00 in Snow Light Snow
2:51 AM 21.9 °F 8.2 °F 12.9 °F 68% 30.43 in 3.0 mi WNW 16.1 mph 27.6 mph 0.00 in Snow Light Snow
3:51 AM 21.0 °F 8.1 °F 10.0 °F 63% 30.43 in 10.0 mi WNW 13.8 mph 26.5 mph 0.00 in   Overcast
4:51 AM 19.9 °F 7.3 °F 10.0 °F 65% 30.43 in 10.0 mi West 12.7 mph 21.9 mph N/A   Overcast
5:01 AM 19.9 °F 5.7 °F 10.0 °F 65% 30.39 in 8.0 mi West 16.1 mph 24.2 mph 0.00 in Snow Light Snow
5:08 AM 19.9 °F 5.2 °F 10.9 °F 68% 30.39 in 9.0 mi West 17.3 mph 24.2 mph 0.00 in   Overcast
5:51 AM 19.9 °F 5.7 °F 8.1 °F 60% 30.44 in 10.0 mi West 16.1 mph 24.2 mph 0.00 in   Overcast
6:11 AM 19.0 °F 5.0 °F 7.0 °F 59% 30.40 in 10.0 mi WNW 15.0 mph - N/A   Overcast
6:51 AM 19.0 °F 6.1 °F 7.0 °F 59% 30.44 in 10.0 mi West 12.7 mph - N/A   Overcast
7:51 AM 19.9 °F 8.6 °F 6.1 °F 55% 30.43 in 10.0 mi West 10.4 mph 18.4 mph N/A   Overcast
8:33 AM 19.0 °F 7.5 °F 10.0 °F 68% 30.39 in 1.8 mi West 10.4 mph - 0.00 in Snow Light Snow
8:39 AM 19.9 °F 7.9 °F 9.0 °F 62% 30.39 in 3.0 mi West 11.5 mph - 0.00 in Snow Light Snow
8:51 AM 19.9 °F 7.3 °F 10.0 °F 65% 30.43 in 1.8 mi West 12.7 mph - 0.00 in Snow Light Snow
9:04 AM 19.9 °F 11.1 °F 12.0 °F 71% 30.38 in 3.0 mi SW 6.9 mph - 0.00 in Snow Light Snow
9:35 AM 19.0 °F 10.0 °F 12.9 °F 77% 30.37 in 10.0 mi SSW 6.9 mph - 0.00 in   Overcast
9:51 AM 19.0 °F 7.5 °F 12.9 °F 77% 30.41 in 6.0 mi South 10.4 mph - 0.00 in Snow Light Snow
9:56 AM 19.0 °F 6.8 °F 12.9 °F 77% 30.37 in 2.0 mi SSW 11.5 mph - 0.00 in Snow Light Snow
10:02 AM 19.0 °F 7.5 °F 12.9 °F 77% 30.37 in 0.8 mi SSW 10.4 mph - 0.00 in Snow Light Snow
10:11 AM 18.0 °F 6.1 °F 14.0 °F 84% 30.37 in 0.2 mi SSW 10.4 mph - 0.00 in Fog , Snow Snow
10:18 AM 19.0 °F 5.0 °F 14.0 °F 81% 30.37 in 0.2 mi SSW 15.0 mph - 0.00 in Snow Heavy Snow
10:33 AM 18.0 °F 5.4 °F 14.0 °F 84% 30.36 in 0.2 mi SSW 11.5 mph 20.7 mph 0.01 in Fog , Snow Snow
10:41 AM 19.0 °F 4.5 °F 14.0 °F 81% 30.36 in 0.8 mi SSW 16.1 mph 20.7 mph 0.01 in Snow Light Snow
10:44 AM 19.0 °F 5.0 °F 12.9 °F 77% 30.36 in 1.2 mi SSW 15.0 mph 20.7 mph 0.02 in Snow Light Snow
10:51 AM 19.0 °F 4.0 °F 12.0 °F 74% 30.40 in 2.0 mi SSW 17.3 mph - 0.02 in Snow Light Snow
10:58 AM 19.0 °F 5.0 °F 12.0 °F 74% 30.36 in 1.2 mi SSW 15.0 mph - 0.00 in Snow Light Snow
11:21 AM 19.9 °F 6.2 °F 12.9 °F 74% 30.34 in 2.0 mi SSW 15.0 mph - 0.00 in Snow Light Snow
11:29 AM 19.9 °F 6.7 °F 12.9 °F 74% 30.34 in 1.0 mi SW 13.8 mph 23.0 mph 0.00 in Snow Light Snow
11:51 AM 19.0 °F 4.5 °F 12.9 °F 77% 30.37 in 0.5 mi SSW 16.1 mph - 0.00 in Snow Snow
12:03 PM 19.0 °F 4.0 °F 12.9 °F 77% 30.32 in 0.5 mi SSW 17.3 mph - 0.00 in Snow Snow
12:11 PM 19.0 °F 6.1 °F 12.9 °F 77% 30.31 in 0.8 mi SSW 12.7 mph - 0.00 in Snow Light Snow
12:19 PM 19.0 °F 5.6 °F 14.0 °F 81% 30.31 in 0.5 mi SSW 13.8 mph - 0.00 in Snow Snow
12:51 PM 19.9 °F 5.7 °F 12.9 °F 74% 30.33 in 0.8 mi SW 16.1 mph 23.0 mph 0.01 in Snow Light Snow
12:59 PM 19.9 °F 7.9 °F 12.9 °F 74% 30.28 in 1.2 mi SW 11.5 mph 23.0 mph 0.00 in Snow Light Snow
1:04 PM 21.0 °F 8.1 °F 12.9 °F 71% 30.28 in 2.0 mi SW 13.8 mph 23.0 mph 0.00 in Snow Light Snow
1:15 PM 21.9 °F 8.2 °F 10.9 °F 63% 30.27 in 1.0 mi WSW 16.1 mph 26.5 mph 0.04 in Snow Light Snow
1:21 PM 21.9 °F 8.2 °F 10.0 °F 60% 30.27 in 3.0 mi SW 16.1 mph 25.3 mph 0.04 in   Haze
1:29 PM 23.0 °F 8.7 °F 10.0 °F 58% 30.27 in 4.0 mi WSW 18.4 mph 31.1 mph 0.04 in   Haze
1:51 PM 21.9 °F 8.7 °F 8.1 °F 55% 30.30 in 4.0 mi WSW 15.0 mph 26.5 mph 0.05 in   Haze
2:51 PM 21.9 °F 7.8 °F 6.1 °F 51% 30.29 in 8.0 mi SW 17.3 mph 25.3 mph 0.00 in   Overcast
3:51 PM 23.0 °F 12.4 °F 1.9 °F 40% 30.27 in 10.0 mi WSW 10.4 mph 18.4 mph N/A   Partly Cloudy
4:51 PM 21.9 °F 11.7 °F 1.0 °F 40% 30.23 in 10.0 mi SW 9.2 mph - N/A   Partly Cloudy
5:51 PM 19.9 °F 9.3 °F 1.9 °F 46% 30.22 in 10.0 mi SW 9.2 mph - N/A   Partly Cloudy
6:51 PM 21.0 °F 8.1 °F 1.9 °F 44% 30.20 in 10.0 mi SW 13.8 mph - N/A   Overcast
7:51 PM 21.0 °F 6.2 °F 1.9 °F 44% 30.18 in 10.0 mi SW 18.4 mph 26.5 mph N/A   Overcast
8:51 PM 21.0 °F 7.6 °F 1.9 °F 44% 30.17 in 10.0 mi SW 15.0 mph 27.6 mph N/A   Overcast
9:51 PM 21.0 °F 6.2 °F 3.9 °F 48% 30.16 in 10.0 mi SW 18.4 mph 28.8 mph N/A   Overcast
10:51 PM 21.0 °F 6.2 °F 5.0 °F 50% 30.14 in 10.0 mi SSW 18.4 mph 26.5 mph N/A   Overcast
11:51 PM 21.0 °F 6.2 °F 3.0 °F 46% 30.14 in 10.0 mi SW 18.4 mph 33.4 mph N/A   Overcast